Weather History for Truckee-Tahoe, CA

Change the Weather History Date:

Monday, March 24, 2014

  Actual Average Record
Temperature  
Mean Temperature 42 °F -  
Max Temperature 62 °F 50 °F 66 °F (2007)
Min Temperature 21 °F 23 °F 8 °F (1963)
Degree Days  
Heating Degree Days 24    
Moisture  
Dew Point 22 °F    
Average Humidity 68    
Maximum Humidity 100    
Minimum Humidity 13    
Precipitation  
Precipitation 0.00 in - - ()
Sea Level Pressure  
Sea Level Pressure 30.22 in    
Wind  
Wind Speed 2 mph (SW)    
Max Wind Speed 12 mph    
Max Gust Speed 20 mph    
Visibility 8 miles    
Events Fog    
Averages and records for this station are not official NWS values.
T = Trace of Precipitation, MM = Missing Value Source: NWS Daily Summary

Daily Weather History Graph

Daily Weather History Graph

Search for Another Location

Airport:

Trip Planner

Search our weather history database for the weather conditions in past years. The results will help you decide how hot, cold, wet, or windy it might be!

Date:

Astronomy

Mar. 24, 2014 Rise Set
Actual Time 6:57 AM PDT 7:16 PM PDT
Civil Twilight 6:30 AM PDT 7:43 PM PDT
Nautical Twilight 5:59 AM PDT 8:15 PM PDT
Astronomical Twilight 5:27 AM PDT 8:47 PM PDT
Moon 2:30 AM PDT (3/24) 12:49 PM PDT (3/24)
Length of Visible Light 13h 12m
Length of Day
12h 19m
Last Quarter, 42% of the Moon is Illuminated
Mar 24
Last Quarter
Mar 30
New
Apr 7
First Quarter
Apr 15
Full
Apr 22
Last Quarter

Hourly Weather History & Observations

Time (PDT) Temp. Windchill Dew Point Humidity Pressure Visibility Wind Dir Wind Speed Gust Speed Precip Events Conditions
12:15 AM 30.2 °F - 28.4 °F 93% 30.27 in 10.0 mi Calm Calm - N/A   Clear
12:35 AM 30.2 °F - 28.4 °F 93% 30.27 in 10.0 mi Calm Calm - N/A   Clear
12:55 AM 30.2 °F - 26.6 °F 86% 30.27 in 10.0 mi Calm Calm - N/A   Clear
1:15 AM 26.6 °F - 24.8 °F 93% 30.27 in 10.0 mi Calm Calm - N/A   Clear
1:35 AM 28.4 °F - 26.6 °F 93% 30.27 in 10.0 mi Calm Calm - N/A   Clear
1:55 AM 26.6 °F - 24.8 °F 93% 30.27 in 1.5 mi Calm Calm - N/A   Mist
2:15 AM 26.6 °F - 24.8 °F 93% 30.27 in 2.0 mi Calm Calm - N/A   Clear
2:35 AM 26.6 °F - 24.8 °F 93% 30.27 in 10.0 mi Calm Calm - N/A   Clear
2:55 AM 23.0 °F - 21.2 °F 93% 30.26 in 0.5 mi Calm Calm - N/A Fog Light Freezing Fog
3:15 AM 26.6 °F - 24.8 °F 93% 30.26 in 2.0 mi Calm Calm - N/A   Scattered Clouds
3:35 AM 26.6 °F - 24.8 °F 93% 30.26 in 0.5 mi Calm Calm - N/A Fog Light Freezing Fog
3:55 AM 21.2 °F - 21.2 °F 100% 30.26 in 0.5 mi Calm Calm - N/A Fog Light Freezing Fog
4:15 AM 23.0 °F - 23.0 °F 100% 30.26 in 1.0 mi Calm Calm - N/A   Mostly Cloudy
4:35 AM 23.0 °F - 23.0 °F 100% 30.26 in 4.0 mi Calm Calm - N/A   Clear
4:55 AM 23.0 °F - 23.0 °F 100% 30.26 in 0.5 mi Calm Calm - N/A Fog Light Freezing Fog
5:15 AM 21.2 °F - 21.2 °F 100% 30.26 in 1.2 mi Calm Calm - N/A   Scattered Clouds
5:35 AM 21.2 °F - 21.2 °F 100% 30.26 in 1.5 mi Calm Calm - N/A   Mist
5:55 AM 21.2 °F - 21.2 °F 100% 30.26 in 1.0 mi Calm Calm - N/A   Mist
6:15 AM 21.2 °F - 19.4 °F 93% 30.27 in 2.5 mi Calm Calm - N/A   Clear
6:35 AM 23.0 °F - 21.2 °F 93% 30.27 in 10.0 mi Calm Calm - N/A   Clear
6:50 AM 21.2 °F - 19.4 °F 93% 30.26 in 10.0 mi Calm Calm - N/A   Clear
7:50 AM 21.2 °F - 19.4 °F 93% 30.28 in 10.0 mi Calm Calm - N/A   Clear
8:50 AM 28.4 °F - 26.6 °F 93% 30.28 in 10.0 mi Calm Calm - N/A   Clear
9:50 AM 35.6 °F - 26.6 °F 70% 30.28 in 10.0 mi Calm Calm - N/A   Partly Cloudy
10:50 AM 46.4 °F - 26.6 °F 46% 30.27 in 10.0 mi Calm Calm - N/A   Partly Cloudy
11:45 AM 57.2 °F - 19.4 °F 23% 30.25 in 10.0 mi NW 4.6 mph - N/A   Partly Cloudy
12:50 PM 62.6 °F - 10.4 °F 13% 30.24 in 10.0 mi West 9.2 mph 16.1 mph N/A   Partly Cloudy
1:45 PM 62.6 °F - 12.2 °F 14% 30.23 in 10.0 mi WSW 9.2 mph 19.6 mph N/A   Partly Cloudy
2:50 PM 62.6 °F - 14.0 °F 15% 30.21 in 10.0 mi West 11.5 mph - N/A   Partly Cloudy
3:50 PM 62.6 °F - 12.2 °F 14% 30.19 in 10.0 mi West 9.2 mph - N/A   Partly Cloudy
5:45 PM 60.8 °F - 17.6 °F 19% 30.17 in 10.0 mi SSW 11.5 mph - N/A   Scattered Clouds
6:15 PM 59.0 °F - 19.4 °F 22% 30.17 in 10.0 mi WSW 8.1 mph - N/A   Clear
6:35 PM 55.4 °F - 19.4 °F 25% 30.17 in 10.0 mi SW 9.2 mph - N/A   Clear
6:55 PM 53.6 °F - 19.4 °F 26% 30.17 in 10.0 mi WSW 8.1 mph - N/A   Clear
7:15 PM 50.0 °F - 19.4 °F 30% 30.17 in 10.0 mi WSW 8.1 mph - N/A   Clear
7:35 PM 44.6 °F 40.7 °F 19.4 °F 37% 30.17 in 10.0 mi SW 6.9 mph - N/A   Clear
7:55 PM 41.0 °F 38.0 °F 21.2 °F 45% 30.17 in 10.0 mi SW 4.6 mph - N/A   Clear
8:15 PM 39.2 °F 35.9 °F 23.0 °F 52% 30.18 in 10.0 mi SSE 4.6 mph - N/A   Clear
8:35 PM 33.8 °F 29.6 °F 21.2 °F 60% 30.18 in 10.0 mi South 4.6 mph - N/A   Clear
8:55 PM 33.8 °F 28.6 °F 23.0 °F 65% 30.18 in 10.0 mi SE 5.8 mph - N/A   Clear
9:15 PM 37.4 °F - 23.0 °F 56% 30.17 in 10.0 mi Calm Calm - N/A   Clear
9:35 PM 35.6 °F 32.8 °F 23.0 °F 60% 30.17 in 10.0 mi WSW 3.5 mph - N/A   Clear
9:55 PM 32.0 °F - 23.0 °F 69% 30.17 in 10.0 mi Calm Calm - N/A   Clear
10:15 PM 32.0 °F - 21.2 °F 64% 30.17 in 10.0 mi Calm Calm - N/A   Clear
10:35 PM 33.8 °F 30.8 °F 21.2 °F 60% 30.17 in 10.0 mi ESE 3.5 mph - N/A   Clear
10:55 PM 30.2 °F - 21.2 °F 69% 30.17 in 10.0 mi Calm Calm - N/A   Clear
11:15 PM 28.4 °F - 21.2 °F 74% 30.16 in 10.0 mi Calm Calm - N/A   Clear
11:35 PM 30.2 °F - 21.2 °F 69% 30.16 in 10.0 mi Calm Calm - N/A   Clear
11:55 PM 30.2 °F - 19.4 °F 64% 30.15 in 10.0 mi Calm Calm - N/A   Clear